Regional Weather Roundup
Issued by NWS Northern Indiana

Home | Current Version | Previous Version | Graphics & Text | Print | Product List | Glossary On
Versions: 1 2 3 4 5 6 7 8 9 10 11 12 13 14 15 16 17 18 19 20 21 22 23 24 25 26 27 28 29 30 31 32 33 34 35 36 37 38 39 40 41 42 43 44 45 46 47 48 49 50
000
ASUS43 KIWX 251210
RWRIWX

KIWX WEATHER ROUNDUP
NATIONAL WEATHER SERVICE NORTHERN INDIANA
800 AM EDT SUN JUN 25 2017

NOTE: "FAIR" INDICATES FEW OR NO CLOUDS BELOW 12,000 FEET WITH NO
SIGNIFICANT WEATHER AND/OR OBSTRUCTIONS TO VISIBILITY.

* THESE STATIONS ARE NOT UNDER NWS QUALITY CONTROL. THEY ALSO MAY NOT
  REPORT WEATHER SUCH AS PRECIPITATION OR FOG.

INZ001>027-251300-
NORTHERN INDIANA

CITY           SKY/WX    TMP DP  RH WIND       PRES   REMARKS
GARY*          SUNNY     61  46  59 W10       30.10S
VALPARAISO     SUNNY     60  48  64 W10       30.10R
6HR MIN TEMP:  55; 6HR MAX TEMP:  61;

MICHIGAN CITY* SUNNY     59  46  63 W9        30.09S
LAPORTE*       SUNNY     58  47  67 W8        30.09S
6HR MIN TEMP:  56; 6HR MAX TEMP:  58;

KNOX*          SUNNY     55  37  50 W9        30.09S
SOUTH BEND     SUNNY     58  48  69 W12       30.07R
6HR MIN TEMP:  53; 6HR MAX TEMP:  58;

ELKHART*       SUNNY    N/A N/A N/A W10       30.05
GOSHEN         SUNNY     58  47  66 W10       30.07R
6HR MIN TEMP:  54; 6HR MAX TEMP:  58;

MONTICELLO*    SUNNY     57  49  74 W7        30.12R
6HR MIN TEMP:  55; 6HR MAX TEMP:  57;

LOGANSPORT*    SUNNY     57  50  77 W9        30.12R
ROCHESTER*     SUNNY     61  50  67 W8        30.10R
WARSAW*        SUNNY     57  48  72 W7        30.08R
AUBURN*        SUNNY     59  46  63 W7        30.07R
FORT WAYNE     MOSUNNY   61  48  62 W14       30.08R
6HR MIN TEMP:  54; 6HR MAX TEMP:  61;

HUNTINGTON*    SUNNY     59  48  65 W10       30.09R
6HR MIN TEMP:  55; 6HR MAX TEMP:  59;

PERU/GRISSOM   SUNNY     59  50  74 W12       30.10R
6HR MIN TEMP:  53; 6HR MAX TEMP:  59;

MARION*        MOSUNNY   61  48  63 W13       30.12R

$$
INZ028>050-251300-
CENTRAL INDIANA

CITY           SKY/WX    TMP DP  RH WIND       PRES   REMARKS
LAFAYETTE      SUNNY     56  51  84 W6        30.13R
6HR MIN TEMP:  52; 6HR MAX TEMP:  56;

KOKOMO*        SUNNY     59  49  69 W13       30.12R
6HR MIN TEMP:  56; 6HR MAX TEMP:  59;

MUNCIE*        SUNNY     64  46  52 W15G21    30.10R
6HR MIN TEMP:  57; 6HR MAX TEMP:  64;

INDIANAPOLIS   MOSUNNY   60  49  66 W12       30.14R
6HR MIN TEMP:  54; 6HR MAX TEMP:  60;


$$
MIZ043>046-050>051-056>058-064>065-071>073-077>080-251300-
SOUTHWEST LOWER MICHIGAN

CITY           SKY/WX    TMP DP  RH WIND       PRES   REMARKS
BATTLE CREEK   SUNNY     57  51  80 W9        30.03R
6HR MIN TEMP:  54; 6HR MAX TEMP:  58; 6HR PCP:  0.02;

BENTON HARBOR  SUNNY     60  48  64 W14G21    30.05R
6HR MIN TEMP:  57; 6HR MAX TEMP:  64;

COLDWATER*     SUNNY     58  51  77 W7        30.04R
6HR MIN TEMP:  53; 6HR MAX TEMP:  58;

HILLSDALE*     MOSUNNY   57  48  72 W9        30.03R
HOLLAND        SUNNY     59  50  72 W13       30.03R
6HR MIN TEMP:  57; 6HR MAX TEMP:  63;

GRAND RAPIDS   MOSUNNY   58  51  78 W9        30.01R
6HR MIN TEMP:  53; 6HR MAX TEMP:  59;

KALAMAZOO      SUNNY     58  49  72 W8        30.04R
6HR MIN TEMP:  55; 6HR MAX TEMP:  59; 6HR PCP:  0.01;

STURGIS*       SUNNY     57  50  75 W7        30.04S
6HR MIN TEMP:  54; 6HR MAX TEMP:  57;

THREE RIVERS*  FAIR      58  50  75 W10       30.05S
6HR MIN TEMP:  54; 6HR MAX TEMP:  58;


$$
OHZ001>008-015>018-024>025-251300-
NORTHWEST OHIO

CITY           SKY/WX    TMP DP  RH WIND       PRES   REMARKS
WAUSEON*       FAIR      61  50  67 W9        30.03R
DEFIANCE       MOSUNNY   60  47  61 VRB6G17   30.04R
6HR MIN TEMP:  52; 6HR MAX TEMP:  61;

FINDLAY        MOSUNNY   63  48  58 SW12      30.04F
6HR MIN TEMP:  56; 6HR MAX TEMP:  64;

TOLEDO EXPRESS MOSUNNY   60  50  69 SW8       30.01F
6HR MIN TEMP:  54; 6HR MAX TEMP:  60;

TOLEDO METCALF MOSUNNY   61  52  72 S8        30.03S
6HR MIN TEMP:  56; 6HR MAX TEMP:  62;

LIMA           PTSUNNY   60  48  64 SW9       30.07S
6HR MIN TEMP:  54; 6HR MAX TEMP:  63;


$$
AND FOR LAKE MICHIGAN COASTAL AND OPEN LAKE BUOY OBSERVATIONS

STATION/POSITION TEMP    WIND        PRES    VSBY  WAVE
                 AIR SEA DIR/SP/G                  HT/PER
                 (F)     (DEG/KT/KT) (MB)    (MI)  (FT/S)
CALUMET HARBOR    59     240/  6/ 11 1018.5R
MICHIGAN CITY     60     260/ 17/ 19   N/A
BURNS HARBOR      61     270/ 13/ 18 1019.3R
SOUTH LAKE BUOY   58 61  300/ 16/ 19 1016.7R         4/ 5
4 MI NW BRIDGMAN  61 68  290/ 16/ 19 1018.3          5/ 5
MICHIGAN CITY     61 67  280/ 16/ 19   N/A           4/ 5

$$
&&




USA.gov is the U.S. government's official web portal to all federal, state and local government web resources and services.